Wind_Speed
6 5 5 7 9 10 10 9 8 7 8 8 8 8 8 6 7 7 7 8 9 10 11 11 10 9 8 7 6 6 6 8 13 16 18 16 17 16 18 20 17 16 16 14 14
6 5 5 5 6 7 9 10 10 9 8 8 9 9 9 9 8 8 8 8 8 8 9 9 10 11 11 11 10 8 6 7 15 12 21 20 12 15 17 17 19 18 18 17 16
6 5 5 4 4 5 6 6 7 7 8 8 9 10 10 9 9 8 9 11 11 11 10 10 10 11 12 12 12 11 9 19 20 17 21 15 13 14 11 15 22 18 18 18 17
7 6 5 4 4 4 6 7 8 8 8 8 9 10 11 11 10 9 9 10 11 11 12 13 13 12 12 13 13 14 16 15 20 18 16 17 18 15 11 19 24 18 17 17 17
9 8 7 6 5 5 5 6 8 10 10 10 9 10 12 12 11 10 10 11 11 11 12 13 13 13 14 14 15 16 15 17 16 15 17 20 18 18 20 22 25 20 16 16 17
12 11 9 9 8 8 8 7 7 8 9 11 11 11 12 13 13 12 12 12 12 12 12 13 14 15 16 15 15 18 14 18 17 18 19 21 21 21 25 19 21 19 19 18 15
16 15 14 13 12 11 11 10 10 9 9 10 12 12 13 11 14 13 13 13 13 13 13 14 14 15 15 16 15 15 15 16 17 19 21 20 23 19 26 18 20 21 20 19 14
20 19 18 17 16 15 14 14 13 13 11 11 11 13 13 13 14 14 14 13 14 15 15 15 16 16 17 16 16 15 16 16 19 19 20 18 18 23 25 21 22 22 20 18 14
23 22 22 21 20 20 19 18 17 16 15 14 13 14 13 14 13 13 14 14 14 14 14 15 16 16 16 15 16 16 13 15 18 13 17 14 12 25 26 22 24 23 21 18 14
21 23 22 23 23 22 22 21 20 19 18 17 16 17 15 16 15 14 14 15 15 15 15 16 16 17 17 15 12 12 13 16 19 22 17 19 15 20 31 25 23 23 21 19 17
22 21 20 20 21 22 23 23 22 21 20 20 19 19 17 17 17 16 16 15 15 16 17 17 17 17 17 16 14 17 17 16 20 20 23 21 22 19 29 27 25 22 21 21 22
25 26 24 22 20 21 22 22 23 22 22 22 21 21 19 19 18 18 17 17 17 17 17 17 18 19 20 18 18 21 20 17 18 25 23 23 23 22 24 28 22 22 21 21 23
27 27 25 23 23 23 22 22 23 23 23 25 23 23 21 20 20 19 19 19 19 19 20 19 19 25 20 21 20 20 20 17 19 25 24 23 22 23 22 28 22 21 19 23 25
31 31 31 28 26 24 24 25 24 24 23 27 25 26 23 23 23 22 21 21 21 22 22 22 28 21 23 23 22 21 23 24 23 23 20 23 20 20 24 27 22 20 21 24 27
35 34 34 33 32 30 29 28 28 27 26 33 24 22 25 24 26 23 22 23 22 22 23 21 28 24 25 25 25 22 31 25 26 26 24 20 24 17 17 29 23 21 22 24 27
35 36 37 36 35 34 33 33 32 31 33 34 28 26 25 25 27 29 25 25 25 24 22 25 30 25 22 26 27 30 27 27 25 24 27 22 22 16 16 26 23 23 23 26 27
29 30 33 35 34 33 33 35 34 36 37 36 33 31 30 28 31 26 26 27 25 25 25 25 29 26 26 26 27 27 26 24 22 18 20 19 20 16 29 33 28 26 26 29 28
29 27 29 30 30 29 29 30 34 34 32 39 31 31 32 33 33 31 30 28 26 27 21 18 20 26 27 25 25 26 23 19 23 11 12 28 25 18 29 26 27 27 28 29 29
29 29 29 30 30 29 30 32 28 30 35 32 31 32 33 33 35 33 31 28 25 27 26 17 20 20 30 24 25 17 22 19 22 22 28 21 20 26 30 25 26 27 28 29 30
28 28 28 29 29 29 30 29 27 32 25 27 29 33 22 28 37 25 24 26 25 25 26 22 26 25 31 27 28 27 20 23 24 27 25 16 20 19 34 25 24 25 28 30 32
25 25 24 25 29 29 28 29 31 32 28 28 29 35 32 27 29 21 22 24 33 25 28 25 28 19 32 29 22 24 28 30 21 20 19 20 16 25 28 31 23 25 26 31 35
25 26 23 23 24 26 26 28 30 32 27 28 29 29 31 33 34 28 25 30 37 30 26 25 25 24 24 21 19 19 22 20 22 22 28 30 29 23 28 24 26 21 22 29 35
28 27 26 25 24 25 26 25 27 27 26 26 27 28 28 27 27 30 34 38 33 29 33 32 32 29 25 23 32 32 29 27 24 23 26 25 13 21 27 24 24 23 27 34 36
31 32 31 30 29 29 30 26 27 26 27 26 27 28 26 23 27 27 31 33 29 32 32 34 37 37 34 29 28 28 26 27 29 29 26 25 24 24 22 31 28 24 31 35 35
35 36 34 36 35 32 33 32 29 29 30 29 30 28 28 26 27 27 28 30 30 27 33 36 37 39 40 39 39 44 26 26 26 29 27 24 24 17 31 33 36 31 34 35 35
40 37 36 39 38 37 37 34 33 34 33 32 34 32 30 28 27 32 32 29 27 30 29 33 33 33 39 35 41 44 42 30 22 25 28 25 29 36 46 33 33 36 37 35 33
45 43 41 42 39 40 38 39 40 40 36 36 38 38 32 34 36 32 31 30 31 28 25 28 29 34 34 38 47 48 44 42 42 34 29 29 24 35 36 34 36 38 34 33 30
Wind_Direction
215 219 227 233 235 232 228 224 225 221 219 219 218 217 218 218 209 203 205 205 208 218 223 225 225 223 217 209 198 186 168 216 204 219 221 252 255 245 264 271 276 278 274 280 285
204 206 214 223 228 229 230 230 230 230 228 226 224 220 220 222 221 214 212 210 210 211 215 218 223 227 226 219 214 201 170 223 220 196 232 255 246 257 262 271 270 268 275 284 289
213 216 223 229 238 242 237 230 224 224 227 230 228 227 223 222 221 214 222 224 222 222 224 227 226 225 223 221 218 213 179 230 222 203 217 242 222 271 268 271 268 269 283 286 288
224 224 233 243 248 249 250 246 240 234 234 234 229 228 227 224 226 221 222 226 227 229 233 239 238 236 230 225 218 217 223 226 235 238 219 242 247 260 237 235 267 286 283 284 283
236 240 240 244 249 253 254 253 251 248 242 239 235 231 230 231 229 229 229 228 227 228 234 236 239 239 239 237 230 228 225 232 239 234 237 247 257 258 259 269 278 286 286 285 287
240 244 246 247 248 250 254 249 250 252 249 240 237 236 235 237 234 237 239 240 238 234 234 237 239 239 243 240 239 248 243 243 248 242 244 255 259 261 268 271 278 286 288 287 291
247 247 246 249 253 251 252 256 252 245 249 249 245 241 240 237 239 239 240 244 245 244 242 240 241 243 248 248 247 254 260 260 256 255 260 254 264 268 271 271 279 284 288 289 298
247 247 249 249 251 253 253 253 254 256 247 243 246 249 249 245 243 239 238 239 243 248 246 244 242 244 247 259 254 258 261 267 267 266 266 268 268 272 271 281 286 289 286 289 298
250 249 250 250 250 252 253 253 253 252 254 254 246 245 246 249 249 247 241 234 237 241 244 242 243 242 244 250 259 263 257 251 252 268 266 267 262 263 279 286 291 290 284 285 288
257 255 255 254 255 256 258 257 258 257 257 256 255 254 247 245 245 243 245 245 237 233 236 240 242 242 242 244 239 246 237 242 236 274 267 275 271 241 282 289 289 289 280 282 288
260 259 256 253 253 254 254 256 256 256 257 257 259 261 256 254 249 241 243 247 248 244 236 237 237 240 244 244 216 225 244 221 245 247 276 282 278 253 272 287 288 283 283 288 291
261 260 256 255 251 253 254 253 253 255 256 257 256 257 257 259 258 255 248 246 249 251 249 243 246 246 240 242 242 243 239 238 240 244 270 275 275 257 256 286 284 283 283 281 282
259 259 256 254 253 251 252 254 255 255 256 258 256 257 256 257 256 255 253 251 249 251 252 247 242 242 246 246 247 248 245 235 236 267 267 272 269 257 252 264 284 280 279 278 278
258 258 258 255 253 251 251 252 253 255 257 257 254 256 258 255 257 257 254 252 249 249 248 250 254 256 249 246 243 249 254 238 232 254 272 284 272 265 274 262 280 276 272 275 277
253 255 256 256 254 253 250 250 251 252 256 257 253 258 258 258 256 258 253 254 253 249 250 255 253 257 257 256 254 233 241 256 256 262 262 253 272 260 246 252 277 274 276 274 276
257 254 254 255 255 254 254 253 251 250 250 252 259 259 258 257 258 256 256 254 253 255 251 247 255 255 250 252 255 255 262 263 264 263 263 266 252 257 264 270 269 281 282 279 284
266 264 259 257 257 256 253 253 250 249 252 259 255 259 259 257 257 256 254 254 255 255 257 252 261 254 254 252 253 256 259 262 265 263 268 248 250 228 246 250 267 281 281 284 287
269 267 264 263 262 260 258 254 252 252 249 256 255 253 254 256 253 255 255 256 253 257 246 260 257 262 259 252 260 254 251 250 248 230 266 261 272 255 261 263 269 273 279 283 285
273 267 264 263 263 261 259 257 256 244 242 255 249 247 248 245 249 251 251 257 258 254 250 247 254 242 263 254 246 250 256 242 252 241 225 241 274 277 276 270 274 279 280 282 284
275 270 263 259 259 258 256 256 250 254 251 240 238 239 224 250 246 240 244 247 241 244 254 250 247 256 262 257 253 247 242 252 254 254 260 271 239 261 277 286 286 286 287 286 287
274 270 266 259 255 255 254 252 252 256 246 240 235 235 232 218 233 220 247 247 253 241 249 249 252 243 265 262 257 260 248 252 238 255 270 244 238 256 267 284 289 296 297 297 299
264 264 263 261 251 249 248 247 249 253 242 240 237 236 234 235 241 226 222 230 244 249 242 252 250 245 247 276 260 227 254 264 248 242 256 270 259 247 267 269 280 284 280 280 298
261 258 252 251 247 243 245 243 244 245 244 239 237 236 237 235 237 235 238 244 256 257 254 253 253 254 254 243 253 264 250 238 248 245 243 264 268 269 271 269 270 280 287 293 293
258 254 250 246 245 244 243 245 244 241 242 240 241 238 236 233 237 237 242 251 252 254 257 256 258 258 256 235 234 251 233 246 246 243 258 256 271 249 280 283 273 285 295 299 297
253 253 252 247 243 243 245 246 247 249 247 248 244 240 239 237 237 242 241 245 256 250 252 253 255 256 268 257 246 249 273 227 237 253 245 254 257 268 259 270 287 295 300 300 299
251 253 251 250 248 244 243 246 248 249 249 250 246 243 243 242 242 244 246 252 252 255 255 264 264 261 264 269 255 248 244 254 251 241 239 255 256 258 263 275 284 294 300 300 301
250 251 252 252 251 247 247 243 244 247 249 249 249 249 247 247 246 251 255 252 254 255 257 264 268 267 280 265 259 260 240 246 249 242 252 251 263 255 270 280 289 296 295 297 298
Height
5877 5877 5877 5877 5878 5878 5879 5879 5880 5880 5880 5881 5881 5882 5883 5883 5884 5885 5886 5887 5888 5889 5890 5892 5893 5895 5898 5900 5902 5904 5906 5914 5919 5917 5916 5910 5908 5909 5908 5906 5905 5904 5904 5904 5903
5876 5876 5876 5877 5877 5877 5877 5877 5878 5878 5879 5880 5880 5881 5882 5882 5883 5884 5885 5886 5887 5888 5889 5890 5892 5894 5896 5899 5901 5903 5906 5916 5914 5915 5913 5907 5907 5904 5906 5904 5902 5902 5901 5901 5901
5875 5875 5876 5876 5875 5875 5876 5876 5876 5876 5877 5878 5879 5879 5880 5881 5882 5883 5883 5884 5886 5887 5888 5889 5891 5892 5895 5897 5899 5901 5905 5910 5906 5908 5910 5905 5909 5904 5904 5901 5897 5899 5900 5899 5899
5874 5874 5874 5874 5874 5874 5874 5874 5875 5875 5876 5876 5877 5877 5878 5879 5881 5881 5882 5883 5884 5885 5887 5888 5889 5891 5893 5895 5897 5899 5899 5901 5902 5903 5905 5903 5902 5902 5904 5902 5896 5897 5897 5896 5896
5871 5872 5872 5872 5872 5872 5873 5873 5873 5873 5874 5874 5875 5875 5876 5877 5878 5878 5880 5881 5882 5883 5885 5886 5888 5889 5892 5894 5895 5896 5897 5897 5898 5899 5900 5898 5899 5899 5897 5896 5893 5894 5894 5893 5892
5868 5869 5870 5870 5870 5871 5871 5871 5871 5871 5871 5872 5872 5873 5874 5874 5875 5876 5878 5879 5880 5882 5883 5884 5886 5887 5889 5891 5893 5893 5895 5894 5895 5896 5896 5895 5895 5895 5893 5894 5891 5890 5889 5889 5888
5865 5866 5867 5867 5868 5869 5869 5869 5869 5869 5869 5869 5870 5870 5870 5872 5872 5874 5875 5876 5877 5879 5881 5882 5883 5885 5886 5888 5890 5890 5891 5891 5892 5892 5891 5893 5891 5891 5888 5890 5889 5887 5886 5884 5884
5861 5862 5863 5864 5864 5865 5866 5866 5866 5867 5867 5867 5867 5868 5868 5868 5869 5871 5872 5873 5874 5876 5877 5879 5880 5882 5884 5885 5886 5887 5888 5888 5887 5888 5888 5890 5890 5886 5884 5886 5885 5883 5882 5881 5881
5856 5857 5859 5860 5860 5861 5861 5862 5863 5863 5864 5864 5864 5865 5866 5866 5867 5868 5869 5870 5871 5873 5874 5876 5877 5878 5879 5881 5882 5883 5885 5885 5886 5884 5884 5886 5887 5884 5881 5882 5880 5879 5878 5878 5878
5851 5852 5854 5855 5856 5857 5857 5858 5859 5860 5861 5861 5861 5862 5863 5863 5864 5865 5866 5868 5868 5869 5871 5872 5874 5876 5877 5878 5882 5884 5883 5888 5886 5881 5882 5882 5884 5884 5876 5877 5877 5875 5875 5875 5875
5845 5847 5848 5849 5850 5851 5852 5853 5855 5856 5856 5857 5858 5857 5859 5860 5860 5861 5863 5864 5866 5867 5867 5868 5870 5872 5874 5875 5878 5884 5884 5884 5884 5883 5877 5878 5878 5879 5874 5873 5872 5871 5872 5871 5870
5839 5841 5843 5844 5845 5846 5846 5847 5848 5850 5851 5852 5852 5853 5855 5856 5857 5858 5859 5861 5862 5864 5865 5866 5867 5869 5870 5871 5873 5874 5876 5879 5880 5875 5875 5874 5874 5874 5872 5868 5869 5868 5868 5868 5866
5833 5835 5836 5838 5840 5841 5841 5842 5843 5844 5845 5846 5847 5848 5850 5851 5852 5853 5855 5857 5858 5860 5861 5863 5862 5862 5866 5867 5868 5869 5871 5873 5875 5869 5870 5870 5869 5869 5869 5865 5865 5864 5865 5863 5863
5826 5828 5829 5831 5834 5834 5836 5836 5838 5839 5840 5840 5841 5843 5845 5845 5847 5848 5850 5852 5853 5855 5856 5859 5857 5861 5861 5862 5864 5865 5864 5865 5866 5865 5866 5865 5866 5867 5864 5862 5860 5860 5860 5859 5857
5818 5819 5821 5823 5825 5828 5829 5830 5832 5834 5835 5832 5837 5839 5839 5841 5841 5843 5845 5845 5847 5849 5852 5854 5852 5855 5857 5859 5859 5861 5856 5860 5860 5860 5860 5863 5860 5863 5862 5858 5856 5856 5855 5854 5852
5809 5811 5811 5813 5816 5819 5821 5822 5825 5828 5827 5827 5830 5832 5834 5835 5835 5835 5839 5840 5842 5844 5846 5847 5844 5848 5851 5851 5853 5852 5854 5854 5854 5855 5853 5856 5856 5862 5861 5853 5852 5850 5849 5848 5847
5800 5802 5802 5803 5806 5808 5811 5813 5817 5817 5818 5820 5823 5826 5828 5830 5829 5831 5833 5834 5837 5838 5840 5841 5840 5842 5844 5845 5846 5847 5848 5849 5849 5850 5850 5850 5851 5854 5847 5848 5847 5845 5843 5841 5840
5791 5793 5794 5795 5797 5799 5801 5804 5805 5808 5812 5810 5817 5818 5820 5821 5823 5825 5826 5828 5831 5832 5835 5837 5838 5837 5837 5840 5840 5841 5843 5844 5844 5851 5853 5842 5844 5845 5840 5841 5841 5839 5836 5835 5833
5781 5784 5785 5786 5788 5790 5793 5794 5799 5800 5800 5804 5807 5810 5812 5814 5817 5818 5820 5822 5824 5826 5829 5832 5832 5831 5830 5834 5835 5838 5836 5841 5840 5840 5841 5843 5843 5835 5833 5834 5833 5831 5830 5828 5825
5772 5774 5776 5777 5779 5781 5784 5787 5789 5789 5794 5795 5799 5801 5807 5806 5808 5812 5814 5816 5818 5819 5821 5825 5825 5825 5824 5827 5828 5830 5834 5832 5832 5832 5834 5838 5838 5834 5825 5827 5825 5824 5822 5819 5817
5765 5766 5768 5770 5771 5773 5776 5779 5780 5782 5785 5788 5791 5792 5798 5800 5801 5808 5811 5813 5809 5813 5813 5816 5818 5824 5817 5820 5823 5823 5824 5824 5828 5831 5827 5829 5834 5826 5823 5820 5820 5817 5814 5810 5807
5757 5758 5760 5762 5765 5766 5768 5770 5773 5774 5779 5781 5784 5786 5788 5791 5793 5799 5803 5802 5798 5804 5808 5809 5810 5813 5818 5817 5818 5820 5820 5819 5820 5823 5823 5820 5821 5819 5816 5815 5812 5813 5811 5805 5802
5749 5750 5753 5755 5758 5760 5762 5764 5766 5769 5772 5775 5778 5780 5781 5784 5787 5789 5791 5790 5793 5797 5798 5802 5802 5805 5808 5813 5810 5811 5813 5815 5815 5814 5815 5811 5809 5811 5809 5808 5806 5806 5803 5799 5796
5741 5743 5744 5747 5749 5752 5754 5758 5760 5762 5765 5769 5771 5772 5775 5777 5778 5781 5783 5783 5785 5788 5792 5793 5795 5796 5800 5805 5804 5794 5800 5804 5806 5807 5807 5808 5810 5806 5801 5798 5797 5799 5795 5790 5787
5732 5733 5736 5738 5740 5744 5746 5750 5752 5755 5757 5762 5764 5767 5769 5771 5772 5773 5776 5777 5776 5781 5782 5784 5786 5791 5790 5794 5797 5791 5788 5789 5797 5799 5800 5803 5802 5798 5795 5793 5789 5790 5787 5784 5780
5720 5723 5727 5727 5730 5733 5735 5740 5743 5745 5749 5753 5756 5758 5761 5764 5767 5765 5766 5767 5770 5769 5774 5773 5777 5781 5780 5783 5785 5783 5787 5785 5778 5788 5791 5793 5795 5793 5784 5787 5785 5782 5780 5776 5773
5708 5711 5713 5716 5720 5722 5726 5728 5731 5734 5739 5742 5745 5748 5753 5754 5756 5759 5760 5761 5762 5764 5766 5767 5769 5770 5768 5775 5773 5768 5779 5781 5780 5782 5785 5787 5782 5776 5779 5779 5778 5775 5773 5770 5767